Simultaneous Nadir Overpasses (SNOs) Predictions

Prediction of SNOs between AQUA and METOP-A Satellite Orbit:

Table of predicted SNOs for the next 14.0 days since TLE Epoch: 9/25/2020
Index Date (AQUA) Time (AQUA) Lat,Lon (AQUA) SZA (AQUA ) Date (METOP-A) Time (METOP-A) Lat,Lon (METOP-A) SZA (METOP-A ) Distance(km) Time Diff (sec)
1 09/28/2020 02:32:57 -76.05, -49.56 101.70 09/28/2020 02:31:53 -76.02, -53.25 101.54 98.96 64
2 09/28/2020 03:22:36 76.64, 116.15 78.98 09/28/2020 03:22:20 76.61, 116.12 78.96 3.20 16
3 09/28/2020 04:12:03 -76.67, -76.32 100.97 09/28/2020 04:13:00 -76.69, -76.25 100.96 2.86 57
4 09/30/2020 22:07:19 -76.46, 15.56 100.16 09/30/2020 22:06:08 -76.37, 14.27 100.17 35.15 71
5 09/30/2020 22:56:49 76.62,-177.34 80.04 09/30/2020 22:56:42 76.63,-177.46 80.06 3.41 7
6 09/30/2020 23:46:17 -76.69, -9.96 99.87 09/30/2020 23:47:23 -76.67, -9.99 99.90 2.58 66
7 10/03/2020 17:41:37 -76.63, 81.42 98.89 10/03/2020 17:40:26 -76.62, 81.51 98.89 2.39 71
8 10/03/2020 18:31:04 76.65,-111.01 81.16 10/03/2020 18:31:05 76.65,-111.03 81.16 0.67 1
9 10/03/2020 19:20:32 -76.72, 56.38 98.76 10/03/2020 19:21:45 -76.74, 56.60 98.76 6.07 73
10 10/06/2020 13:15:51 -76.61, 147.91 97.83 10/06/2020 13:14:49 -76.64, 147.93 97.79 3.24 62
11 10/06/2020 14:05:19 76.69, -44.71 82.27 10/06/2020 14:05:28 76.68, -44.62 82.25 2.81 9
12 10/06/2020 14:54:54 -77.08, 121.51 97.27 10/06/2020 14:56:01 -77.07, 124.24 97.40 68.00 67
13 10/09/2020 08:50:05 -76.65,-145.79 96.72 10/09/2020 08:49:11 -76.66,-145.65 96.71 3.73 54
14 10/09/2020 09:39:32 76.68, 21.75 83.33 10/09/2020 09:39:50 76.69, 21.80 83.34 1.81 18
